Location: Boca do Mato
(22.9085°S, 43.2930°W)
Time: 22:33:51
(UTC+00:00)

Chandra Rocket (1) - Pass Details

Date: 14 July 2020
Orbit: 332 x 11022 km, 28.4° (Epoch: 10 August)

Event Time Altitude Azimuth Distance (km) Brightness Sun altitude
Exits shadow 07:41:25 38° 267° (W) 2,677 4.7 -25.3°
Maximum altitude 07:45:30 59° 327° (NNW) 1,484 3.7 -24.4°
Drops below altitude 10° 07:50:18 10° 47° (NE) 2,217 5.7 -23.4°
Sets 07:51:49 0° 52° (NE) 2,814 6.6 -23.0°
